Time,TemperatureF,DewpointF,PressureIn,WindDirection,WindDirectionDegrees,WindSpeedMPH,WindSpeedGustMPH,Humidity,HourlyPrecipIn,Conditions,Clouds,dailyrainin,SolarRadiationWatts/m^2,SoftwareType,DateUTC
2013-11-07 00:21:00,25.0,15.0,-100.00,SSE,152,2.0,5.0,66,0.00,,,0.00,0.000000,,2013-11-07 09:21:00,
2013-11-07 00:33:00,25.0,15.0,-100.00,SSE,152,2.0,5.0,66,0.00,,,0.00,0.000000,,2013-11-07 09:33:00,
2013-11-07 00:42:00,25.0,15.0,-100.00,SSE,152,2.0,5.0,66,0.00,,,0.00,0.000000,,2013-11-07 09:42:00,
2013-11-07 00:53:00,25.0,15.0,-100.00,SSE,152,2.0,5.0,66,0.00,,,0.00,0.000000,,2013-11-07 09:53:00,
2013-11-07 01:23:00,26.0,15.0,-100.00,West,262,1.0,5.0,62,0.00,,,0.00,0.000000,,2013-11-07 10:23:00,
2013-11-07 01:33:00,26.0,15.0,-100.00,West,262,1.0,5.0,62,0.00,,,0.00,0.000000,,2013-11-07 10:33:00,
2013-11-07 01:42:00,26.0,15.0,-100.00,West,262,1.0,5.0,62,0.00,,,0.00,0.000000,,2013-11-07 10:42:00,
2013-11-07 01:52:00,26.0,15.0,-100.00,West,262,1.0,5.0,62,0.00,,,0.00,0.000000,,2013-11-07 10:52:00,
2013-11-07 02:22:00,27.0,16.0,-100.00,SE,140,2.0,6.0,62,0.00,,,0.00,0.000000,,2013-11-07 11:22:00,
2013-11-07 02:42:00,27.0,16.0,-100.00,SE,140,2.0,6.0,62,0.00,,,0.00,0.000000,,2013-11-07 11:42:00,
2013-11-07 02:52:00,27.0,16.0,-100.00,SE,140,2.0,6.0,62,0.00,,,0.00,0.000000,,2013-11-07 11:52:00,
2013-11-07 03:22:00,29.0,16.0,-100.00,East,83,2.0,6.0,58,0.00,,,0.00,0.000000,,2013-11-07 12:22:00,
2013-11-07 03:32:00,29.0,16.0,-100.00,East,83,2.0,6.0,58,0.00,,,0.00,0.000000,,2013-11-07 12:32:00,
2013-11-07 03:42:00,29.0,16.0,-100.00,East,83,2.0,6.0,58,0.00,,,0.00,0.000000,,2013-11-07 12:42:00,
2013-11-07 03:52:00,29.0,16.0,-100.00,East,83,2.0,6.0,58,0.00,,,0.00,0.000000,,2013-11-07 12:52:00,
2013-11-07 04:21:00,29.0,16.0,-100.00,NNE,23,0.0,4.0,57,0.00,,,0.00,0.000000,,2013-11-07 13:21:00,
2013-11-07 04:32:00,29.0,16.0,-100.00,NNE,23,0.0,4.0,57,0.00,,,0.00,0.000000,,2013-11-07 13:32:00,
2013-11-07 04:42:00,29.0,16.0,-100.00,NNE,23,0.0,4.0,57,0.00,,,0.00,0.000000,,2013-11-07 13:42:00,
2013-11-07 04:52:00,29.0,16.0,-100.00,NNE,23,0.0,4.0,57,0.00,,,0.00,0.000000,,2013-11-07 13:52:00,
2013-11-07 05:22:00,31.0,15.0,-100.00,SSE,150,2.0,5.0,51,0.00,,,0.00,0.000000,,2013-11-07 14:22:00,
2013-11-07 05:32:00,31.0,15.0,-100.00,SSE,150,2.0,5.0,51,0.00,,,0.00,0.000000,,2013-11-07 14:32:00,
2013-11-07 05:42:00,31.0,15.0,-100.00,SSE,150,2.0,5.0,51,0.00,,,0.00,0.000000,,2013-11-07 14:42:00,
2013-11-07 05:52:00,31.0,15.0,-100.00,SSE,150,2.0,5.0,51,0.00,,,0.00,0.000000,,2013-11-07 14:52:00,
2013-11-07 06:22:00,31.0,16.0,-100.00,ESE,123,1.0,5.0,53,0.00,,,0.00,0.000000,,2013-11-07 15:22:00,
2013-11-07 06:33:00,31.0,16.0,-100.00,ESE,123,1.0,5.0,53,0.00,,,0.00,0.000000,,2013-11-07 15:33:00,
2013-11-07 06:43:00,31.0,16.0,-100.00,ESE,123,1.0,5.0,53,0.00,,,0.00,0.000000,,2013-11-07 15:43:00,
2013-11-07 06:53:00,31.0,16.0,-100.00,ESE,123,1.0,5.0,53,0.00,,,0.00,0.000000,,2013-11-07 15:53:00,
2013-11-07 07:23:00,30.0,15.0,-100.00,SSE,157,3.0,4.0,52,0.00,,,0.00,0.000000,,2013-11-07 16:23:00,
2013-11-07 07:33:00,30.0,15.0,-100.00,SSE,157,3.0,4.0,52,0.00,,,0.00,0.000000,,2013-11-07 16:33:00,
2013-11-07 07:42:00,30.0,15.0,-100.00,SSE,157,3.0,4.0,52,0.00,,,0.00,0.000000,,2013-11-07 16:42:00,
2013-11-07 07:52:00,30.0,15.0,-100.00,SSE,157,3.0,4.0,52,0.00,,,0.00,0.000000,,2013-11-07 16:52:00,
2013-11-07 08:22:00,30.0,14.0,-100.00,SSW,192,2.0,4.0,51,0.00,,,0.00,0.000000,,2013-11-07 17:22:00,
2013-11-07 08:33:00,30.0,14.0,-100.00,SSW,192,2.0,4.0,51,0.00,,,0.00,0.000000,,2013-11-07 17:33:00,
2013-11-07 08:42:00,30.0,14.0,-100.00,SSW,192,2.0,4.0,51,0.00,,,0.00,0.000000,,2013-11-07 17:42:00,
2013-11-07 08:52:00,30.0,14.0,-100.00,SSW,192,2.0,4.0,51,0.00,,,0.00,0.000000,,2013-11-07 17:52:00,
2013-11-07 09:23:00,31.0,15.0,-100.00,SSW,201,2.0,4.0,52,0.00,,,-99.99,1.000000,,2013-11-07 18:23:00,
2013-11-07 09:32:00,31.0,15.0,-100.00,SSW,201,2.0,4.0,52,0.00,,,-99.99,1.000000,,2013-11-07 18:32:00,
2013-11-07 09:42:00,31.0,15.0,-100.00,SSW,201,2.0,4.0,52,0.00,,,-99.99,1.000000,,2013-11-07 18:42:00,
2013-11-07 09:52:00,31.0,15.0,-100.00,SSW,201,2.0,4.0,52,0.00,,,-99.99,1.000000,,2013-11-07 18:52:00,
2013-11-07 10:21:00,31.0,16.0,-100.00,SSE,148,1.0,5.0,53,0.00,,,0.00,19.000000,,2013-11-07 19:21:00,
2013-11-07 10:32:00,31.0,16.0,-100.00,SSE,148,1.0,5.0,53,0.00,,,0.00,19.000000,,2013-11-07 19:32:00,
2013-11-07 10:42:00,31.0,16.0,-100.00,SSE,148,1.0,5.0,53,0.00,,,0.00,19.000000,,2013-11-07 19:42:00,
2013-11-07 10:52:00,31.0,16.0,-100.00,SSE,148,1.0,5.0,53,0.00,,,0.00,19.000000,,2013-11-07 19:52:00,
2013-11-07 11:21:00,33.0,16.0,-100.00,SSE,161,1.0,4.0,49,0.00,,,0.00,68.000000,,2013-11-07 20:21:00,
2013-11-07 11:32:00,33.0,16.0,-100.00,SSE,161,1.0,4.0,49,0.00,,,0.00,68.000000,,2013-11-07 20:32:00,
2013-11-07 11:42:00,33.0,16.0,-100.00,SSE,161,1.0,4.0,49,0.00,,,0.00,68.000000,,2013-11-07 20:42:00,
2013-11-07 11:52:00,33.0,16.0,-100.00,SSE,161,1.0,4.0,49,0.00,,,0.00,68.000000,,2013-11-07 20:52:00,
2013-11-07 12:22:00,34.0,18.0,-100.00,North,350,1.0,4.0,51,0.00,,,0.00,92.000000,,2013-11-07 21:22:00,
2013-11-07 12:34:00,34.0,18.0,-100.00,North,350,1.0,4.0,51,0.00,,,0.00,92.000000,,2013-11-07 21:34:00,
2013-11-07 12:43:00,34.0,18.0,-100.00,North,350,1.0,4.0,51,0.00,,,0.00,92.000000,,2013-11-07 21:43:00,
2013-11-07 12:53:00,34.0,18.0,-100.00,North,350,1.0,4.0,51,0.00,,,0.00,92.000000,,2013-11-07 21:53:00,
2013-11-07 13:23:00,38.0,19.0,-100.00,South,187,4.0,6.0,46,0.00,,,0.00,177.000000,,2013-11-07 22:23:00,
2013-11-07 13:33:00,38.0,19.0,-100.00,South,187,4.0,6.0,46,0.00,,,0.00,177.000000,,2013-11-07 22:33:00,
2013-11-07 13:43:00,38.0,19.0,-100.00,South,187,4.0,6.0,46,0.00,,,0.00,177.000000,,2013-11-07 22:43:00,
2013-11-07 13:53:00,38.0,19.0,-100.00,South,187,4.0,6.0,46,0.00,,,0.00,177.000000,,2013-11-07 22:53:00,
2013-11-07 14:22:00,34.0,20.0,-100.00,SSW,199,1.0,5.0,55,0.00,,,0.00,126.000000,,2013-11-07 23:22:00,
2013-11-07 14:34:00,34.0,20.0,-100.00,SSW,199,1.0,5.0,55,0.00,,,0.00,126.000000,,2013-11-07 23:34:00,
2013-11-07 14:43:00,34.0,20.0,-100.00,SSW,199,1.0,5.0,55,0.00,,,0.00,126.000000,,2013-11-07 23:43:00,
2013-11-07 14:53:00,34.0,20.0,-100.00,SSW,199,1.0,5.0,55,0.00,,,0.00,126.000000,,2013-11-07 23:53:00,
2013-11-07 15:22:00,27.0,18.0,-100.00,NNE,20,6.0,8.0,68,0.00,,,0.00,70.000000,,2013-11-08 00:22:00,
2013-11-07 15:32:00,27.0,18.0,-100.00,NNE,20,6.0,8.0,68,0.00,,,0.00,70.000000,,2013-11-08 00:32:00,
2013-11-07 15:42:00,27.0,18.0,-100.00,NNE,20,6.0,8.0,68,0.00,,,0.00,70.000000,,2013-11-08 00:42:00,
2013-11-07 15:52:00,27.0,18.0,-100.00,NNE,20,6.0,8.0,68,0.00,,,0.00,70.000000,,2013-11-08 00:52:00,
2013-11-07 16:22:00,25.0,16.0,-100.00,NNE,28,6.0,9.0,69,0.00,,,0.00,38.000000,,2013-11-08 01:22:00,
2013-11-07 16:32:00,25.0,16.0,-100.00,NNE,28,6.0,9.0,69,0.00,,,0.00,38.000000,,2013-11-08 01:32:00,
2013-11-07 16:42:00,25.0,16.0,-100.00,NNE,28,6.0,9.0,69,0.00,,,0.00,38.000000,,2013-11-08 01:42:00,
2013-11-07 16:52:00,25.0,16.0,-100.00,NNE,28,6.0,9.0,69,0.00,,,0.00,38.000000,,2013-11-08 01:52:00,
2013-11-07 17:21:00,24.0,16.0,-100.00,NNE,29,6.0,8.0,70,0.00,,,0.00,9.000000,,2013-11-08 02:21:00,
2013-11-07 17:32:00,24.0,16.0,-100.00,NNE,29,6.0,8.0,70,0.00,,,0.00,9.000000,,2013-11-08 02:32:00,
2013-11-07 17:42:00,24.0,16.0,-100.00,NNE,29,6.0,8.0,70,0.00,,,0.00,9.000000,,2013-11-08 02:42:00,
2013-11-07 17:52:00,24.0,16.0,-100.00,NNE,29,6.0,8.0,70,0.00,,,0.00,9.000000,,2013-11-08 02:52:00,
2013-11-07 18:21:00,23.0,15.0,-100.00,NNE,23,6.0,8.0,71,0.00,,,0.00,0.000000,,2013-11-08 03:21:00,
2013-11-07 18:34:00,23.0,15.0,-100.00,NNE,23,6.0,8.0,71,0.00,,,0.00,0.000000,,2013-11-08 03:34:00,
2013-11-07 18:44:00,23.0,15.0,-100.00,NNE,23,6.0,8.0,71,0.00,,,0.00,0.000000,,2013-11-08 03:44:00,
2013-11-07 18:54:00,23.0,15.0,-100.00,NNE,23,6.0,8.0,71,0.00,,,0.00,0.000000,,2013-11-08 03:54:00,
2013-11-07 19:23:00,22.0,14.0,-100.00,NNE,20,5.0,7.0,72,0.00,,,0.00,0.000000,,2013-11-08 04:23:00,
2013-11-07 19:34:00,22.0,14.0,-100.00,NNE,20,5.0,7.0,72,0.00,,,0.00,0.000000,,2013-11-08 04:34:00,
2013-11-07 19:43:00,22.0,14.0,-100.00,NNE,20,5.0,7.0,72,0.00,,,0.00,0.000000,,2013-11-08 04:43:00,
2013-11-07 19:54:00,22.0,14.0,-100.00,NNE,20,5.0,7.0,72,0.00,,,0.00,0.000000,,2013-11-08 04:54:00,
2013-11-07 20:23:00,23.0,16.0,-100.00,NNE,28,5.0,6.0,74,0.00,,,0.00,0.000000,,2013-11-08 05:23:00,
2013-11-07 20:34:00,23.0,16.0,-100.00,NNE,28,5.0,6.0,74,0.00,,,0.00,0.000000,,2013-11-08 05:34:00,
2013-11-07 20:43:00,23.0,16.0,-100.00,NNE,28,5.0,6.0,74,0.00,,,0.00,0.000000,,2013-11-08 05:43:00,
2013-11-07 20:54:00,23.0,16.0,-100.00,NNE,28,5.0,6.0,74,0.00,,,0.00,0.000000,,2013-11-08 05:54:00,
2013-11-07 21:23:00,22.0,15.0,-100.00,North,5,5.0,7.0,73,0.00,,,0.00,0.000000,,2013-11-08 06:23:00,
2013-11-07 21:32:00,22.0,15.0,-100.00,North,5,5.0,7.0,73,0.00,,,0.00,0.000000,,2013-11-08 06:32:00,
2013-11-07 21:42:00,22.0,15.0,-100.00,North,5,5.0,7.0,73,0.00,,,0.00,0.000000,,2013-11-08 06:42:00,
2013-11-07 21:52:00,22.0,15.0,-100.00,North,5,5.0,7.0,73,0.00,,,0.00,0.000000,,2013-11-08 06:52:00,
2013-11-07 22:21:00,22.0,16.0,-100.00,NE,38,3.0,9.0,77,0.00,,,0.00,0.000000,,2013-11-08 07:21:00,
2013-11-07 22:32:00,22.0,16.0,-100.00,NE,38,3.0,9.0,77,0.00,,,0.00,0.000000,,2013-11-08 07:32:00,
2013-11-07 22:42:00,22.0,16.0,-100.00,NE,38,3.0,9.0,77,0.00,,,0.00,0.000000,,2013-11-08 07:42:00,
2013-11-07 22:52:00,22.0,16.0,-100.00,NE,38,3.0,9.0,77,0.00,,,0.00,0.000000,,2013-11-08 07:52:00,
2013-11-07 23:22:00,25.0,17.0,-100.00,South,174,3.0,4.0,72,0.00,,,-99.99,0.000000,,2013-11-08 08:22:00,
2013-11-07 23:32:00,25.0,17.0,-100.00,South,174,3.0,4.0,72,0.00,,,-99.99,0.000000,,2013-11-08 08:32:00,
2013-11-07 23:42:00,25.0,17.0,-100.00,South,174,3.0,4.0,72,0.00,,,-99.99,0.000000,,2013-11-08 08:42:00,
2013-11-07 23:52:00,25.0,17.0,-100.00,South,174,3.0,4.0,72,0.00,,,-99.99,0.000000,,2013-11-08 08:52:00,